| time (UTC) | temp F | wind direction | speed knots | gust knots | rain 1hr in | rain 24hr in | rain mn in | humidity % | barometer mb |
| 20260507093842 | 54 | 329 | 0.9 | 3.5 | 0.00 | 0.08 | 0.01 | 84 | 1016.4 |
| 20260507093321 | 53 | 288 | 2.6 | 3.5 | 0.00 | 0.08 | 0.01 | 83 | 1016.4 |
| 20260507092817 | 54 | 341 | 1.7 | 3.5 | 0.00 | 0.08 | 0.01 | 83 | 1016.3 |
| 20260507092338 | 53 | 329 | 0.0 | 2.6 | 0.00 | 0.08 | 0.01 | 82 | 1016.3 |
| 20260507091833 | 54 | 33 | 0.9 | 2.6 | 0.00 | 0.08 | 0.01 | 84 | 1016.3 |
| 20260507091330 | 53 | 36 | 0.9 | 2.6 | 0.00 | 0.08 | 0.01 | 83 | 1016.3 |
| 20260507090826 | 53 | 306 | 0.9 | 2.6 | 0.00 | 0.08 | 0.01 | 84 | 1016.2 |
| 20260507090318 | 52 | 306 | 1.7 | 3.5 | 0.00 | 0.08 | 0.01 | 83 | 1016.2 |
| 20260507085833 | 53 | 307 | 1.7 | 3.5 | 0.00 | 0.08 | 0.01 | 85 | 1016.2 |
| 20260507085329 | 53 | 317 | 0.9 | 3.5 | 0.00 | 0.08 | 0.01 | 85 | 1016.1 |
| 20260507084825 | 52 | 336 | 0.9 | 2.6 | 0.00 | 0.08 | 0.01 | 86 | 1016.1 |
| 20260507084322 | 52 | 342 | 1.7 | 2.6 | 0.00 | 0.08 | 0.01 | 86 | 1016.1 |
| 20260507083815 | 52 | 24 | 0.9 | 1.7 | 0.00 | 0.08 | 0.01 | 87 | 1016.1 |
| 20260507083332 | 51 | 30 | 0.0 | 2.6 | 0.00 | 0.08 | 0.01 | 86 | 1016.1 |
| 20260507082830 | 52 | 30 | 0.0 | 3.5 | 0.00 | 0.08 | 0.01 | 86 | 1016.0 |
| 20260507082349 | 52 | 30 | 2.6 | 3.5 | 0.00 | 0.08 | 0.01 | 86 | 1016.0 |
| 20260507081821 | 51 | 16 | 0.9 | 2.6 | 0.00 | 0.08 | 0.01 | 87 | 1016.1 |
| 20260507081338 | 51 | 31 | 1.7 | 2.6 | 0.00 | 0.08 | 0.01 | 88 | 1016.1 |
| 20260507080832 | 51 | 348 | 0.9 | 4.3 | 0.00 | 0.08 | 0.01 | 88 | 1016.1 |
| 20260507080328 | 51 | 31 | 2.6 | 4.3 | 0.00 | 0.08 | 0.01 | 87 | 1016.1 |
| 20260507075824 | 51 | 55 | 1.7 | 3.5 | 0.00 | 0.28 | 0.01 | 88 | 1016.0 |
| 20260507075323 | 51 | 61 | 1.7 | 3.5 | 0.00 | 0.28 | 0.01 | 88 | 1016.0 |
| 20260507074836 | 51 | 61 | 1.7 | 3.5 | 0.00 | 0.28 | 0.01 | 89 | 1016.0 |
| 20260507074331 | 50 | 62 | 1.7 | 3.5 | 0.00 | 0.28 | 0.01 | 88 | 1016.0 |
| 20260507073826 | 50 | 51 | 1.7 | 4.3 | 0.00 | 0.28 | 0.01 | 89 | 1015.9 |
| 20260507073322 | 50 | 28 | 2.6 | 4.3 | 0.00 | 0.28 | 0.01 | 89 | 1015.9 |
| 20260507072818 | 50 | 63 | 2.6 | 4.3 | 0.00 | 0.28 | 0.01 | 89 | 1015.9 |
| 20260507072316 | 50 | 15 | 1.7 | 5.2 | 0.00 | 0.28 | 0.01 | 90 | 1015.8 |
| 20260507071831 | 50 | 351 | 3.5 | 5.2 | 0.00 | 0.28 | 0.01 | 90 | 1015.8 |
| 20260507071328 | 50 | 360 | 2.6 | 4.3 | 0.00 | 0.28 | 0.01 | 90 | 1015.8 |
| 20260507070825 | 50 | 9 | 2.6 | 4.3 | 0.00 | 0.28 | 0.01 | 90 | 1015.8 |
| 20260507070323 | 50 | 332 | 1.7 | 4.3 | 0.00 | 0.28 | 0.01 | 91 | 1015.7 |
| 20260507065838 | 50 | 339 | 3.5 | 5.2 | 0.00 | 0.51 | 0.01 | 91 | 1015.6 |
| 20260507065313 | 50 | 338 | 4.3 | 5.2 | 0.00 | 0.51 | 0.01 | 91 | 1015.6 |
| 20260507064829 | 49 | 339 | 3.5 | 4.3 | 0.00 | 0.51 | 0.01 | 91 | 1015.5 |
| 20260507064347 | 49 | 341 | 2.6 | 4.3 | 0.00 | 0.51 | 0.01 | 92 | 1015.5 |
| 20260507063819 | 49 | 320 | 1.7 | 3.5 | 0.00 | 0.51 | 0.01 | 92 | 1015.5 |
| 20260507063316 | 49 | 355 | 1.7 | 3.5 | 0.00 | 0.51 | 0.01 | 92 | 1015.5 |
| 20260507062832 | 49 | 336 | 1.7 | 3.5 | 0.00 | 0.51 | 0.01 | 92 | 1015.4 |
| 20260507062328 | 49 | 22 | 1.7 | 3.5 | 0.00 | 0.51 | 0.01 | 92 | 1015.4 |
| 20260507061839 | 49 | 9 | 2.6 | 3.5 | 0.00 | 0.51 | 0.01 | 92 | 1015.4 |
| 20260507061315 | 49 | 355 | 1.7 | 3.5 | 0.00 | 0.51 | 0.01 | 92 | 1015.3 |
| 20260507060831 | 49 | 336 | 1.7 | 3.5 | 0.00 | 0.51 | 0.01 | 93 | 1015.3 |
| 20260507060328 | 49 | 330 | 2.6 | 4.3 | 0.00 | 0.51 | 0.01 | 93 | 1015.3 |
| 20260507055833 | 49 | 347 | 3.5 | 4.3 | 0.00 | 0.55 | 0.01 | 93 | 1015.2 |
| 20260507055329 | 49 | 330 | 2.6 | 4.3 | 0.00 | 0.55 | 0.01 | 93 | 1015.2 |
| 20260507054824 | 48 | 346 | 0.9 | 4.3 | 0.00 | 0.55 | 0.01 | 93 | 1015.1 |
| 20260507054321 | 48 | 311 | 3.5 | 4.3 | 0.00 | 0.55 | 0.01 | 93 | 1015.1 |
| 20260507053840 | 48 | 344 | 2.6 | 4.3 | 0.00 | 0.55 | 0.01 | 93 | 1015.0 |
| 20260507053356 | 48 | 339 | 3.5 | 4.3 | 0.00 | 0.55 | 0.01 | 93 | 1015.0 |
| 20260507052850 | 48 | 332 | 1.7 | 3.5 | 0.00 | 0.55 | 0.01 | 93 | 1015.0 |
| 20260507052346 | 48 | 300 | 1.7 | 2.6 | 0.00 | 0.55 | 0.01 | 93 | 1014.9 |
| 20260507051820 | 48 | 313 | 0.0 | 2.6 | 0.00 | 0.55 | 0.01 | 94 | 1014.8 |
| 20260507051319 | 48 | 313 | 0.9 | 2.6 | 0.00 | 0.55 | 0.01 | 93 | 1014.8 |
| 20260507050835 | 48 | 327 | 0.9 | 3.5 | 0.00 | 0.55 | 0.01 | 94 | 1014.7 |
| 20260507050352 | 48 | 322 | 1.7 | 3.5 | 0.00 | 0.55 | 0.01 | 94 | 1014.7 |
| 20260507045824 | 48 | 314 | 2.6 | 3.5 | 0.00 | 0.55 | 0.01 | 94 | 1014.7 |
| 20260507045344 | 48 | 300 | 1.7 | 2.6 | 0.00 | 0.55 | 0.01 | 94 | 1014.6 |
| 20260507044817 | 48 | 310 | 1.7 | 2.6 | 0.00 | 0.55 | 0.01 | 94 | 1014.6 |
| 20260507044314 | 48 | 293 | 0.0 | 0.9 | 0.00 | 0.55 | 0.01 | 93 | 1014.5 |
| 20260507043829 | 48 | 293 | 0.0 | 0.9 | 0.00 | 0.55 | 0.01 | 93 | 1014.5 |
| 20260507043326 | 48 | 293 | 0.0 | 1.7 | 0.00 | 0.55 | 0.01 | 93 | 1014.4 |
| 20260507042815 | 48 | 318 | 0.0 | 2.6 | 0.00 | 0.55 | 0.01 | 93 | 1014.4 |
| 20260507042313 | 48 | 289 | 0.0 | 1.7 | 0.00 | 0.55 | 0.01 | 93 | 1014.4 |
| 20260507041828 | 48 | 289 | 0.9 | 1.7 | 0.00 | 0.55 | 0.01 | 94 | 1014.3 |
| 20260507041346 | 48 | 311 | 0.0 | 2.6 | 0.00 | 0.55 | 0.01 | 94 | 1014.3 |
| 20260507040819 | 48 | 291 | 0.9 | 2.6 | 0.00 | 0.55 | 0.01 | 94 | 1014.3 |
| 20260507040318 | 48 | 305 | 1.7 | 2.6 | 0.00 | 0.55 | 0.01 | 94 | 1014.3 |
| 20260507035833 | 48 | 312 | 1.7 | 2.6 | 0.00 | 0.55 | 0.01 | 93 | 1014.3 |
| 20260507035330 | 48 | 281 | 0.0 | 1.7 | 0.00 | 0.55 | 0.01 | 93 | 1014.3 |
| 20260507034826 | 48 | 281 | 0.9 | 1.7 | 0.00 | 0.55 | 0.01 | 93 | 1014.2 |
| 20260507034326 | 48 | 281 | 0.9 | 1.7 | 0.00 | 0.55 | 0.01 | 93 | 1014.3 |
| 20260507033820 | 48 | 281 | 0.9 | 2.6 | 0.00 | 0.55 | 0.01 | 93 | 1014.2 |
| 20260507033337 | 48 | 281 | 1.7 | 2.6 | 0.00 | 0.55 | 0.01 | 93 | 1014.2 |
| 20260507032832 | 48 | 286 | 0.0 | 2.6 | 0.00 | 0.55 | 0.01 | 93 | 1014.2 |
| 20260507032329 | 48 | 291 | 0.9 | 1.7 | 0.00 | 0.55 | 0.01 | 93 | 1014.2 |
| 20260507031825 | 48 | 294 | 0.0 | 2.6 | 0.00 | 0.55 | 0.01 | 93 | 1014.2 |
| 20260507031324 | 48 | 294 | 0.9 | 2.6 | 0.00 | 0.55 | 0.01 | 93 | 1014.1 |
| 20260507030820 | 48 | 306 | 0.9 | 2.6 | 0.00 | 0.55 | 0.01 | 93 | 1014.1 |
| 20260507030319 | 48 | 302 | 1.7 | 2.6 | 0.00 | 0.55 | 0.01 | 93 | 1014.1 |
| 20260507025815 | 48 | 273 | 0.0 | 1.7 | 0.00 | 1.02 | 0.01 | 93 | 1014.1 |
| 20260507025313 | 48 | 273 | 0.0 | 1.7 | 0.00 | 1.02 | 0.01 | 93 | 1014.1 |
| 20260507024829 | 48 | 273 | 0.0 | 0.9 | 0.00 | 1.02 | 0.01 | 93 | 1014.1 |
| 20260507024347 | 48 | 273 | 0.0 | 0.9 | 0.00 | 1.02 | 0.01 | 93 | 1014.1 |
| 20260507023821 | 48 | 273 | 0.0 | 0.9 | 0.00 | 1.02 | 0.01 | 93 | 1014.1 |
| 20260507023318 | 48 | 273 | 0.0 | 0.9 | 0.00 | 1.02 | 0.01 | 93 | 1014.1 |
| 20260507022834 | 49 | 273 | 0.0 | 0.9 | 0.00 | 1.02 | 0.01 | 93 | 1014.0 |
| 20260507022330 | 49 | 273 | 0.0 | 0.9 | 0.00 | 1.02 | 0.01 | 93 | 1014.0 |
| 20260507021826 | 49 | 273 | 0.0 | 1.7 | 0.00 | 1.02 | 0.01 | 93 | 1014.0 |
| 20260507021324 | 49 | 273 | 0.0 | 1.7 | 0.00 | 1.02 | 0.01 | 93 | 1014.0 |
| 20260507020820 | 49 | 273 | 0.0 | 1.7 | 0.00 | 1.02 | 0.01 | 93 | 1013.9 |
| 20260507020317 | 49 | 273 | 0.0 | 1.7 | 0.00 | 1.02 | 0.01 | 93 | 1013.9 |
| 20260507015833 | 49 | 273 | 0.0 | 3.5 | 0.00 | 1.46 | 0.01 | 93 | 1013.9 |
| 20260507015332 | 49 | 273 | 1.7 | 3.5 | 0.00 | 1.46 | 0.01 | 93 | 1013.9 |
| 20260507014827 | 49 | 277 | 0.9 | 4.3 | 0.00 | 1.46 | 0.01 | 93 | 1013.9 |
| 20260507014324 | 49 | 284 | 0.9 | 7.8 | 0.00 | 1.46 | 0.01 | 93 | 1013.8 |
| 20260507013820 | 49 | 309 | 0.9 | 4.3 | 0.00 | 1.46 | 0.01 | 93 | 1013.8 |
| 20260507013316 | 49 | 284 | 2.6 | 5.2 | 0.04 | 1.46 | 0.01 | 93 | 1013.7 |
| 20260507012828 | 49 | 342 | 0.0 | 3.5 | 0.04 | 1.46 | 0.01 | 93 | 1013.8 |
| 20260507012324 | 49 | 337 | 1.7 | 3.5 | 0.04 | 1.46 | 0.01 | 93 | 1013.8 |
| 20260507011841 | 48 | 277 | 0.0 | 0.9 | 0.04 | 1.46 | 0.01 | 93 | 1013.8 |
| 20260507011337 | 49 | 277 | 0.0 | 0.0 | 0.04 | 1.46 | 0.01 | 93 | 1013.8 |
| 20260507010851 | 49 | 277 | 0.0 | 0.0 | 0.04 | 1.46 | 0.01 | 93 | 1013.8 |
| 20260507010346 | 48 | 277 | 0.0 | 2.6 | 0.04 | 1.46 | 0.01 | 93 | 1013.8 |
| 20260507005821 | 48 | 277 | 0.9 | 2.6 | 0.04 | 1.50 | 0.01 | 93 | 1013.8 |
| 20260507005319 | 48 | 270 | 0.9 | 2.6 | 0.04 | 1.50 | 0.01 | 93 | 1013.7 |
| 20260507004835 | 48 | 286 | 0.0 | 1.7 | 0.04 | 1.50 | 0.01 | 93 | 1013.7 |
| 20260507004333 | 48 | 293 | 0.9 | 1.7 | 0.04 | 1.50 | 0.01 | 93 | 1013.7 |
| 20260507003828 | 48 | 273 | 0.0 | 1.7 | 0.04 | 1.50 | 0.01 | 93 | 1013.7 |
| 20260507003329 | 49 | 252 | 0.0 | 1.7 | 0.00 | 1.46 | 0.00 | 93 | 1013.7 |
| 20260507002823 | 49 | 252 | 0.9 | 2.6 | 0.00 | 1.46 | 0.00 | 93 | 1013.8 |
| 20260507002319 | 49 | 252 | 0.0 | 2.6 | 0.00 | 1.46 | 0.00 | 93 | 1013.7 |
| 20260507001834 | 49 | 252 | 0.0 | 1.7 | 0.00 | 1.46 | 0.00 | 93 | 1013.7 |
| 20260507001352 | 49 | 252 | 0.0 | 1.7 | 0.00 | 1.46 | 0.00 | 93 | 1013.7 |
| 20260507000826 | 49 | 252 | 0.9 | 2.6 | 0.00 | 1.46 | 0.00 | 93 | 1013.8 |
| 20260507000323 | 48 | 252 | 0.9 | 2.6 | 0.00 | 1.46 | 0.00 | 93 | 1013.7 |
| 20260506235818 | 49 | 252 | 1.7 | 2.6 | 0.00 | 1.46 | 0.00 | 93 | 1013.7 |
| 20260506235336 | 49 | 252 | 0.9 | 2.6 | 0.00 | 1.46 | 0.00 | 93 | 1013.7 |
| 20260506234853 | 49 | 280 | 0.0 | 1.7 | 0.00 | 1.46 | 0.00 | 93 | 1013.6 |
| 20260506234331 | 49 | 280 | 0.9 | 1.7 | 0.00 | 1.46 | 0.00 | 93 | 1013.6 |
| 20260506233824 | 49 | 280 | 0.0 | 1.7 | 0.00 | 1.46 | 0.00 | 93 | 1013.6 |
| 20260506233344 | 49 | 280 | 0.9 | 1.7 | 0.00 | 1.46 | 0.00 | 93 | 1013.5 |
| 20260506232816 | 49 | 269 | 0.9 | 1.7 | 0.00 | 1.46 | 0.00 | 93 | 1013.5 |
| 20260506232314 | 49 | 269 | 0.0 | 0.9 | 0.00 | 1.46 | 0.00 | 93 | 1013.7 |
| 20260506231852 | 49 | 269 | 0.0 | 0.9 | 0.00 | 1.46 | 0.00 | 93 | 1013.6 |
| 20260506231329 | 49 | 269 | 0.0 | 1.7 | 0.00 | 1.46 | 0.00 | 93 | 1013.6 |
| 20260506230823 | 49 | 269 | 0.0 | 1.7 | 0.00 | 1.46 | 0.00 | 93 | 1013.5 |
| 20260506230320 | 49 | 269 | 0.0 | 2.6 | 0.00 | 1.46 | 0.00 | 93 | 1013.5 |
| 20260506225815 | 49 | 243 | 0.9 | 2.6 | 0.00 | 1.46 | 0.00 | 93 | 1013.4 |
| 20260506225333 | 49 | 248 | 0.9 | 1.7 | 0.00 | 1.46 | 0.00 | 92 | 1013.5 |
| 20260506224827 | 49 | 248 | 0.0 | 3.5 | 0.00 | 1.46 | 0.00 | 92 | 1013.4 |
| 20260506224326 | 49 | 248 | 0.9 | 3.5 | 0.00 | 1.46 | 0.00 | 92 | 1013.4 |
| 20260506223841 | 49 | 286 | 0.0 | 5.2 | 0.00 | 1.46 | 0.00 | 92 | 1013.4 |
| 20260506223316 | 49 | 286 | 0.9 | 5.2 | 0.00 | 1.46 | 0.00 | 93 | 1013.4 |
| 20260506222831 | 49 | 272 | 0.9 | 2.6 | 0.00 | 1.46 | 0.00 | 93 | 1013.4 |
| 20260506222326 | 49 | 347 | 0.9 | 2.6 | 0.00 | 1.46 | 0.00 | 93 | 1013.4 |
| 20260506221821 | 49 | 287 | 0.0 | 2.6 | 0.00 | 1.46 | 0.00 | 93 | 1013.3 |
| 20260506221319 | 49 | 278 | 0.0 | 1.7 | 0.00 | 1.46 | 0.00 | 93 | 1013.3 |
| 20260506220816 | 49 | 263 | 0.0 | 2.6 | 0.00 | 1.46 | 0.00 | 93 | 1013.2 |
| 20260506220334 | 49 | 263 | 0.9 | 2.6 | 0.00 | 1.46 | 0.00 | 93 | 1013.3 |
| 20260506215828 | 49 | 303 | 1.7 | 2.6 | 0.00 | 1.46 | 0.29 | 93 | 1013.3 |
| 20260506215328 | 49 | 269 | 1.7 | 2.6 | 0.00 | 1.46 | 0.29 | 93 | 1013.2 |
| 20260506214823 | 49 | 237 | 0.0 | 2.6 | 0.00 | 1.46 | 0.29 | 93 | 1013.3 |
| 20260506214322 | 49 | 237 | 0.9 | 3.5 | 0.04 | 1.46 | 0.29 | 93 | 1013.2 |
| 20260506213819 | 49 | 265 | 1.7 | 3.5 | 0.04 | 1.46 | 0.29 | 93 | 1013.2 |
| 20260506213317 | 49 | 265 | 1.7 | 2.6 | 0.04 | 1.46 | 0.29 | 93 | 1013.2 |
| 20260506212832 | 49 | 296 | 0.0 | 2.6 | 0.04 | 1.46 | 0.29 | 93 | 1013.2 |
| 20260506212332 | 49 | 296 | 0.0 | 2.6 | 0.04 | 1.46 | 0.29 | 93 | 1013.2 |
| 20260506211828 | 49 | 296 | 0.0 | 2.6 | 0.04 | 1.46 | 0.29 | 93 | 1013.2 |
| 20260506211328 | 49 | 275 | 1.7 | 2.6 | 0.04 | 1.46 | 0.29 | 93 | 1013.2 |
| 20260506210845 | 49 | 300 | 0.0 | 1.7 | 0.04 | 1.46 | 0.29 | 92 | 1013.2 |
| 20260506210321 | 49 | 300 | 0.9 | 2.6 | 0.04 | 1.46 | 0.29 | 92 | 1013.1 |
| 20260506205839 | 49 | 301 | 0.9 | 2.6 | 0.04 | 1.46 | 0.29 | 92 | 1013.2 |
| 20260506205337 | 49 | 307 | 0.0 | 2.6 | 0.04 | 1.46 | 0.29 | 92 | 1013.1 |
| 20260506204849 | 49 | 307 | 0.9 | 4.3 | 0.04 | 1.46 | 0.29 | 92 | 1013.0 |
| 20260506204327 | 49 | 302 | 2.6 | 4.3 | 0.00 | 1.42 | 0.28 | 92 | 1013.0 |
| 20260506203822 | 49 | 298 | 1.7 | 3.5 | 0.00 | 1.42 | 0.28 | 92 | 1012.9 |
| 20260506203316 | 49 | 304 | 1.7 | 5.2 | 0.00 | 1.42 | 0.28 | 92 | 1012.9 |
| 20260506202855 | 49 | 313 | 1.7 | 5.2 | 0.00 | 1.42 | 0.28 | 92 | 1012.8 |
| 20260506202350 | 49 | 306 | 0.9 | 3.5 | 0.00 | 1.42 | 0.28 | 91 | 1012.9 |
| 20260506201822 | 49 | 290 | 0.9 | 4.3 | 0.00 | 1.42 | 0.28 | 91 | 1012.7 |
| 20260506201319 | 50 | 301 | 1.7 | 3.5 | 0.00 | 1.42 | 0.28 | 91 | 1012.7 |
| 20260506200833 | 50 | 304 | 1.7 | 2.6 | 0.00 | 1.42 | 0.28 | 91 | 1012.7 |
| 20260506200329 | 50 | 304 | 1.7 | 2.6 | 0.00 | 1.42 | 0.28 | 91 | 1012.6 |
| 20260506195823 | 50 | 304 | 0.9 | 2.6 | 0.00 | 1.42 | 0.28 | 91 | 1012.6 |
| 20260506195321 | 50 | 310 | 0.9 | 1.7 | 0.00 | 1.42 | 0.28 | 91 | 1012.6 |
| 20260506194833 | 50 | 310 | 0.9 | 1.7 | 0.00 | 1.42 | 0.28 | 91 | 1012.5 |
| 20260506194330 | 50 | 310 | 0.9 | 1.7 | 0.00 | 1.42 | 0.28 | 91 | 1012.4 |
| 20260506193824 | 50 | 310 | 0.9 | 2.6 | 0.00 | 1.42 | 0.28 | 90 | 1012.3 |
| 20260506193322 | 50 | 312 | 1.7 | 2.6 | 0.00 | 1.42 | 0.28 | 90 | 1012.3 |
| 20260506192815 | 50 | 304 | 0.9 | 2.6 | 0.00 | 1.42 | 0.28 | 90 | 1012.2 |
| 20260506192330 | 50 | 306 | 0.9 | 4.3 | 0.00 | 1.42 | 0.28 | 90 | 1012.2 |
| 20260506191822 | 50 | 311 | 1.7 | 4.3 | 0.00 | 1.42 | 0.28 | 90 | 1012.0 |
| 20260506191315 | 50 | 306 | 2.6 | 4.3 | 0.00 | 1.42 | 0.28 | 90 | 1011.9 |
| 20260506190829 | 50 | 325 | 2.6 | 4.3 | 0.00 | 1.42 | 0.28 | 90 | 1011.8 |
| 20260506190324 | 50 | 328 | 3.5 | 4.3 | 0.00 | 1.42 | 0.28 | 89 | 1011.8 |
| 20260506185819 | 50 | 318 | 2.6 | 5.2 | 0.00 | 1.50 | 0.28 | 89 | 1011.7 |
| 20260506185317 | 50 | 322 | 2.6 | 7.8 | 0.00 | 1.50 | 0.28 | 89 | 1011.6 |
| 20260506184833 | 50 | 317 | 4.3 | 7.0 | 0.00 | 1.50 | 0.28 | 89 | 1011.6 |
| 20260506184331 | 51 | 313 | 4.3 | 7.0 | 0.00 | 1.50 | 0.28 | 89 | 1011.6 |
| 20260506183827 | 51 | 313 | 2.6 | 7.0 | 0.00 | 1.50 | 0.28 | 89 | 1011.6 |
| 20260506183325 | 51 | 317 | 3.5 | 7.0 | 0.00 | 1.50 | 0.28 | 89 | 1011.5 |
| 20260506182849 | 51 | 326 | 4.3 | 7.8 | 0.00 | 1.50 | 0.28 | 89 | 1011.5 |
| 20260506182325 | 51 | 327 | 4.3 | 7.8 | 0.00 | 1.50 | 0.28 | 89 | 1011.6 |
| 20260506181841 | 51 | 336 | 3.5 | 7.8 | 0.00 | 1.50 | 0.28 | 89 | 1011.5 |
| 20260506181336 | 51 | 317 | 3.5 | 7.0 | 0.00 | 1.50 | 0.28 | 88 | 1011.5 |
| 20260506180825 | 51 | 323 | 3.5 | 6.1 | 0.00 | 1.50 | 0.28 | 88 | 1011.4 |
| 20260506180341 | 51 | 315 | 2.6 | 4.3 | 0.00 | 1.50 | 0.28 | 88 | 1011.3 |
| 20260506175815 | 51 | 319 | 2.6 | 5.2 | 0.00 | 1.57 | 0.28 | 88 | 1011.3 |
| 20260506175332 | 51 | 349 | 3.5 | 5.2 | 0.00 | 1.57 | 0.28 | 87 | 1011.3 |
| 20260506174830 | 51 | 323 | 2.6 | 7.0 | 0.00 | 1.57 | 0.28 | 88 | 1011.2 |
| 20260506174349 | 51 | 329 | 4.3 | 7.0 | 0.00 | 1.57 | 0.28 | 88 | 1011.2 |
| 20260506173946 | 51 | 326 | 3.5 | 7.0 | 0.00 | 1.57 | 0.28 | 88 | 1011.1 |
| 20260506173330 | 51 | 331 | 3.5 | 7.0 | 0.00 | 1.57 | 0.28 | 88 | 1011.0 |
| 20260506172825 | 51 | 351 | 2.6 | 5.2 | 0.00 | 1.57 | 0.28 | 88 | 1011.0 |
| 20260506172322 | 51 | 342 | 2.6 | 7.8 | 0.00 | 1.57 | 0.28 | 88 | 1011.0 |
| 20260506171817 | 51 | 302 | 5.2 | 8.7 | 0.00 | 1.57 | 0.28 | 88 | 1010.9 |
| 20260506171314 | 51 | 346 | 4.3 | 7.0 | 0.00 | 1.57 | 0.28 | 88 | 1010.9 |
| 20260506170831 | 51 | 325 | 5.2 | 8.7 | 0.00 | 1.57 | 0.28 | 88 | 1010.9 |
| 20260506170328 | 51 | 329 | 5.2 | 8.7 | 0.00 | 1.57 | 0.28 | 88 | 1010.8 |
| 20260506165825 | 51 | 299 | 4.3 | 7.8 | 0.00 | 1.97 | 0.28 | 89 | 1010.8 |
| 20260506165322 | 51 | 327 | 3.5 | 8.7 | 0.00 | 1.97 | 0.28 | 88 | 1010.8 |
| 20260506164817 | 51 | 306 | 4.3 | 10.4 | 0.00 | 1.97 | 0.28 | 87 | 1010.8 |
| 20260506164314 | 52 | 320 | 8.7 | 10.4 | 0.00 | 1.97 | 0.28 | 87 | 1010.7 |
| 20260506163830 | 52 | 320 | 6.1 | 9.6 | 0.00 | 1.97 | 0.28 | 87 | 1010.7 |
| 20260506163330 | 52 | 327 | 6.1 | 9.6 | 0.00 | 1.97 | 0.28 | 87 | 1010.6 |
| 20260506162825 | 52 | 346 | 6.1 | 9.6 | 0.00 | 1.97 | 0.28 | 87 | 1010.6 |
| 20260506162322 | 51 | 9 | 6.1 | 10.4 | 0.00 | 1.97 | 0.28 | 87 | 1010.6 |
| 20260506161840 | 51 | 340 | 6.1 | 10.4 | 0.00 | 1.97 | 0.28 | 87 | 1010.6 |
| 20260506161339 | 51 | 302 | 7.0 | 10.4 | 0.00 | 1.97 | 0.28 | 87 | 1010.6 |
| 20260506160832 | 51 | 330 | 6.1 | 11.3 | 0.00 | 1.97 | 0.28 | 87 | 1010.6 |
| 20260506160332 | 51 | 325 | 8.7 | 11.3 | 0.00 | 1.97 | 0.28 | 86 | 1010.6 |
| 20260506155828 | 52 | 302 | 7.0 | 10.4 | 0.00 | 2.64 | 0.28 | 86 | 1010.6 |
| 20260506155327 | 52 | 306 | 6.1 | 12.2 | 0.00 | 2.64 | 0.28 | 86 | 1010.6 |
| 20260506154843 | 52 | 332 | 7.0 | 12.2 | 0.00 | 2.64 | 0.28 | 85 | 1010.5 |
| 20260506154341 | 52 | 313 | 5.2 | 11.3 | 0.00 | 2.64 | 0.28 | 85 | 1010.4 |
| 20260506153814 | 52 | 306 | 7.8 | 13.0 | 0.00 | 2.64 | 0.28 | 85 | 1010.5 |
| 20260506153331 | 52 | 311 | 8.7 | 13.0 | 0.00 | 2.64 | 0.28 | 84 | 1010.5 |
| 20260506152828 | 52 | 300 | 7.8 | 12.2 | 0.00 | 2.64 | 0.28 | 84 | 1010.5 |
| 20260506152325 | 52 | 309 | 7.0 | 13.0 | 0.00 | 2.64 | 0.28 | 85 | 1010.5 |
| 20260506151821 | 53 | 331 | 8.7 | 12.2 | 0.00 | 2.64 | 0.28 | 84 | 1010.5 |
| 20260506151321 | 53 | 350 | 8.7 | 11.3 | 0.00 | 2.64 | 0.28 | 84 | 1010.5 |
| 20260506150818 | 53 | 338 | 7.0 | 13.0 | 0.00 | 2.64 | 0.28 | 84 | 1010.4 |
| 20260506150334 | 53 | 294 | 9.6 | 13.0 | 0.00 | 2.64 | 0.28 | 85 | 1010.4 |
| 20260506145829 | 53 | 325 | 7.0 | 12.2 | 0.00 | 2.64 | 0.28 | 85 | 1010.4 |
| 20260506145327 | 52 | 312 | 8.7 | 12.2 | 0.00 | 2.64 | 0.28 | 86 | 1010.4 |
| 20260506144823 | 52 | 317 | 9.6 | 12.2 | 0.00 | 2.64 | 0.28 | 86 | 1010.4 |
| 20260506144321 | 52 | 321 | 7.0 | 13.0 | 0.00 | 2.64 | 0.28 | 86 | 1010.4 |
| 20260506143817 | 52 | 319 | 9.6 | 13.0 | 0.00 | 2.64 | 0.28 | 85 | 1010.4 |
| 20260506143316 | 52 | 355 | 7.8 | 13.9 | 0.00 | 2.64 | 0.28 | 85 | 1010.4 |
| 20260506142830 | 52 | 321 | 10.4 | 13.9 | 0.00 | 2.64 | 0.28 | 85 | 1010.4 |
| 20260506142349 | 52 | 346 | 7.0 | 13.0 | 0.00 | 2.64 | 0.28 | 85 | 1010.4 |
| 20260506141822 | 52 | 325 | 7.0 | 13.0 | 0.00 | 2.64 | 0.28 | 86 | 1010.4 |
| 20260506141320 | 52 | 355 | 9.6 | 13.0 | 0.00 | 2.64 | 0.28 | 86 | 1010.5 |
| 20260506140815 | 52 | 348 | 7.8 | 14.8 | 0.00 | 2.64 | 0.28 | 85 | 1010.4 |
| 20260506140314 | 53 | 347 | 10.4 | 14.8 | 0.00 | 2.64 | 0.28 | 84 | 1010.4 |
| 20260506135829 | 53 | 344 | 7.0 | 13.0 | 0.00 | 2.68 | 0.28 | 85 | 1010.3 |
| 20260506135325 | 53 | 334 | 9.6 | 12.2 | 0.00 | 2.68 | 0.28 | 85 | 1010.2 |
| 20260506134820 | 53 | 342 | 8.7 | 12.2 | 0.00 | 2.68 | 0.28 | 85 | 1010.3 |
| 20260506134319 | 53 | 355 | 8.7 | 11.3 | 0.00 | 2.68 | 0.28 | 86 | 1010.2 |
| 20260506133816 | 53 | 344 | 8.7 | 13.0 | 0.00 | 2.68 | 0.28 | 85 | 1010.3 |
| 20260506133332 | 53 | 9 | 6.1 | 13.0 | 0.00 | 2.68 | 0.28 | 86 | 1010.3 |
| 20260506132828 | 53 | 355 | 8.7 | 12.2 | 0.00 | 2.68 | 0.28 | 84 | 1010.3 |
| 20260506132324 | 53 | 9 | 7.8 | 10.4 | 0.00 | 2.68 | 0.28 | 85 | 1010.3 |
| 20260506131820 | 54 | 339 | 7.8 | 10.4 | 0.00 | 2.68 | 0.28 | 84 | 1010.3 |
| 20260506131338 | 54 | 344 | 7.8 | 11.3 | 0.00 | 2.68 | 0.28 | 84 | 1010.3 |
| 20260506130834 | 54 | 336 | 6.1 | 13.0 | 0.00 | 2.68 | 0.28 | 84 | 1010.2 |
| 20260506130332 | 54 | 340 | 7.0 | 13.0 | 0.00 | 2.68 | 0.28 | 84 | 1010.2 |
| 20260506125827 | 54 | 350 | 7.0 | 10.4 | 0.00 | 2.72 | 0.28 | 84 | 1010.2 |
| 20260506125324 | 53 | 343 | 6.1 | 11.3 | 0.00 | 2.72 | 0.28 | 84 | 1010.1 |
| 20260506124838 | 53 | 347 | 8.7 | 11.3 | 0.00 | 2.72 | 0.28 | 83 | 1010.1 |
| 20260506124351 | 53 | 355 | 7.8 | 11.3 | 0.00 | 2.72 | 0.28 | 84 | 1010.2 |
| 20260506123843 | 53 | 338 | 7.0 | 11.3 | 0.00 | 2.72 | 0.28 | 85 | 1010.1 |
| 20260506123320 | 53 | 338 | 5.2 | 11.3 | 0.00 | 2.72 | 0.28 | 86 | 1010.1 |
| 20260506122814 | 53 | 355 | 8.7 | 10.4 | 0.00 | 2.72 | 0.28 | 85 | 1010.1 |
| 20260506122338 | 52 | 343 | 7.0 | 10.4 | 0.00 | 2.72 | 0.28 | 86 | 1010.1 |
| 20260506121831 | 52 | 335 | 5.2 | 12.2 | 0.00 | 2.72 | 0.28 | 86 | 1010.0 |
| 20260506121330 | 52 | 325 | 7.8 | 13.0 | 0.00 | 2.72 | 0.28 | 86 | 1010.0 |
| 20260506120825 | 52 | 355 | 7.0 | 13.0 | 0.00 | 2.72 | 0.28 | 87 | 1010.0 |
| 20260506120342 | 51 | 355 | 7.0 | 11.3 | 0.00 | 2.72 | 0.28 | 87 | 1009.9 |
| 20260506115817 | 51 | 324 | 7.8 | 10.4 | 0.00 | 2.95 | 0.28 | 87 | 1009.9 |
| 20260506115335 | 51 | 309 | 7.0 | 13.9 | 0.00 | 2.95 | 0.28 | 87 | 1009.9 |
| 20260506114849 | 51 | 360 | 10.4 | 15.6 | 0.00 | 2.95 | 0.28 | 87 | 1009.9 |
| 20260506114327 | 51 | 338 | 10.4 | 13.0 | 0.00 | 2.95 | 0.28 | 87 | 1009.8 |
| 20260506113822 | 51 | 325 | 11.3 | 13.9 | 0.00 | 2.95 | 0.28 | 87 | 1009.7 |
| 20260506113322 | 51 | 319 | 9.6 | 13.9 | 0.00 | 2.95 | 0.28 | 86 | 1009.7 |
| 20260506112817 | 52 | 338 | 8.7 | 13.9 | 0.00 | 2.95 | 0.28 | 87 | 1009.6 |
| 20260506112314 | 52 | 336 | 10.4 | 13.9 | 0.00 | 2.95 | 0.28 | 87 | 1009.7 |
| 20260506111836 | 51 | 325 | 10.4 | 13.9 | 0.00 | 2.95 | 0.28 | 87 | 1009.6 |
| 20260506111354 | 52 | 319 | 7.8 | 13.0 | 0.00 | 2.95 | 0.28 | 87 | 1009.6 |
| 20260506110829 | 52 | 339 | 7.8 | 13.9 | 0.00 | 2.95 | 0.28 | 87 | 1009.5 |
| 20260506110328 | 51 | 342 | 10.4 | 13.9 | 0.00 | 2.95 | 0.28 | 87 | 1009.5 |
| 20260506105825 | 51 | 351 | 7.0 | 13.0 | 0.00 | 2.99 | 0.28 | 88 | 1009.6 |
| 20260506105323 | 51 | 343 | 7.8 | 13.0 | 0.00 | 2.99 | 0.28 | 88 | 1009.5 |
| 20260506104817 | 51 | 331 | 8.7 | 13.0 | 0.00 | 2.99 | 0.28 | 89 | 1009.5 |
| 20260506104314 | 50 | 351 | 9.6 | 13.0 | 0.00 | 2.99 | 0.28 | 89 | 1009.6 |
| 20260506103829 | 50 | 333 | 8.7 | 13.9 | 0.00 | 2.99 | 0.28 | 89 | 1009.5 |
| 20260506103328 | 51 | 351 | 9.6 | 15.6 | 0.00 | 2.99 | 0.28 | 89 | 1009.5 |
| 20260506102839 | 50 | 333 | 11.3 | 15.6 | 0.00 | 2.99 | 0.28 | 89 | 1009.6 |
| 20260506102316 | 50 | 330 | 9.6 | 15.6 | 0.00 | 2.99 | 0.28 | 89 | 1009.6 |
| 20260506101830 | 50 | 334 | 8.7 | 13.0 | 0.00 | 2.99 | 0.28 | 89 | 1009.5 |
| 20260506101328 | 50 | 313 | 7.8 | 13.0 | 0.00 | 2.99 | 0.28 | 89 | 1009.4 |
| 20260506100821 | 50 | 331 | 7.8 | 13.0 | 0.00 | 2.99 | 0.28 | 90 | 1009.4 |
| 20260506100322 | 50 | 28 | 7.8 | 13.0 | 0.00 | 2.99 | 0.28 | 90 | 1009.4 |
| 20260506095816 | 50 | 9 | 7.0 | 13.9 | 0.00 | 2.99 | 0.28 | 89 | 1009.2 |
| 20260506095314 | 50 | 328 | 10.4 | 15.6 | 0.00 | 2.99 | 0.28 | 90 | 1009.2 |
| 20260506094829 | 50 | 341 | 10.4 | 15.6 | 0.00 | 2.99 | 0.28 | 90 | 1009.2 |
| 20260506094326 | 50 | 323 | 8.7 | 13.9 | 0.00 | 2.99 | 0.28 | 90 | 1009.1 |